C/2017 E4 ( Lovejoy )

Japanese version
Home page
Updated on March 18, 2017

---------------------------------------------------------------------

* Profile

Discovery Date March 9, 2017
Magnitude 15.0 mag
Discoverer Terry James Lovejoy (Birkdale, Queensland, Australia)

* Orbital Elements

T 2017 Apr. 23.29176 TT                                 MPCW
q   0.4935734            (2000.0)            P               Q
                   Peri.   87.21538     -0.01433707     +0.72950774
                   Node   223.16867     -0.44824588     +0.60663364
e   1.0            Incl.   88.23093     +0.89379532     +0.31593367
From 98 observations 2017 Mar. 9-13.

* Finding Charts

* Magnitudes Graph

        m1 = 12.5 + 5 log d + 10.0 log r

---------------------------------------------------------------------

The orbital elements are published on M.P.E.C. 2017-E86.
The charts are made with StellaNavigator Ver.10 (AstroArts).
The magnitudes graphs are made with Comet for Windows.

---------------------------------------------------------------------

Copyright(C) Seiichi Yoshida (comet@aerith.net). All rights reserved.